Regional Weather Roundup
Issued by NWS Northern Indiana

Home | Current Version | Previous Version | Text Only | Print | Product List | Glossary On
Versions: 1 2 3 4 5 6 7 8 9 10 11 12 13 14 15 16 17 18 19 20 21 22 23 24 25 26 27 28 29 30 31 32 33 34 35 36 37 38 39 40 41 42 43 44 45 46 47 48 49 50
000
ASUS43 KIWX 020600
RWRIWX

KIWX WEATHER ROUNDUP
NATIONAL WEATHER SERVICE NORTHERN INDIANA
100 AM EST MON MAR 02 2015

NOTE: "FAIR" INDICATES FEW OR NO CLOUDS BELOW 12,000 FEET WITH NO
SIGNIFICANT WEATHER AND/OR OBSTRUCTIONS TO VISIBILITY.

* THESE STATIONS ARE NOT UNDER NWS QUALITY CONTROL. THEY ALSO MAY NOT
  REPORT WEATHER SUCH AS PRECIPITATION OR FOG.

INZ001>027-020700-
NORTHERN INDIANA

CITY           SKY/WX    TMP DP  RH WIND       PRES   REMARKS
SOUTH BEND     PTCLDY    14  10  84 W7        30.33R WCI   4
6HR MIN TEMP:  14; 6HR MAX TEMP:  24;

GOSHEN         PTCLDY    15  10  80 W12       30.31S WCI   2
6HR MIN TEMP:  15; 6HR MAX TEMP:  20;

ANGOLA*        CLOUDY    19  16  86 W8        30.27S WCI   9
FORT WAYNE     PTCLDY    15  11  83 W10       30.33R WCI   2
6HR MIN TEMP:  15; 6HR MAX TEMP:  22; 6HR PCP: TRACE;

PERU/GRISSOM   PTCLDY    13  10  90 SW10      30.35R WCI   0
6HR MIN TEMP:  11; 6HR MAX TEMP:  22;


$$
INZ028>050-020700-
CENTRAL INDIANA

CITY           SKY/WX    TMP DP  RH WIND       PRES   REMARKS
LAFAYETTE      MOCLDY    17  14  88 W7        30.40S WCI   8
6HR MIN TEMP:  15; 6HR MAX TEMP:  22;

KOKOMO*        PTCLDY    16  10  79 W12       30.36S WCI   3
6HR MIN TEMP:  16; 6HR MAX TEMP:  25; 6HR PCP:  0.01;

MUNCIE*        PTCLDY    19  16  88 W10       30.35S WCI   7
6HR MIN TEMP:  19; 6HR MAX TEMP:  26;

INDIANAPOLIS   CLOUDY    22  16  78 W9        30.39R WCI  12
6HR MIN TEMP:  22; 6HR MAX TEMP:  28;


$$
MIZ043>046-050>051-056>058-064>065-071>073-077>080-020700-
SOUTHWEST LOWER MICHIGAN

CITY           SKY/WX    TMP DP  RH WIND       PRES   REMARKS
BATTLE CREEK   FLURRIES  24  17  74 W13       30.24S WCI  12
6HR MIN TEMP:  24; 6HR MAX TEMP:  25; 6HR PCP: TRACE;

BENTON HARBOR  CLOUDY    23  17  78 W15G24    30.32R WCI  10
COLDWATER*     FLURRIES  22  17  80 W12G17    30.25F WCI  10
6HR MIN TEMP:  14; 6HR MAX TEMP:  23;

HILLSDALE*     LGT SNOW  22  17  79 W14       30.23S WCI  10
HOLLAND        CLOUDY    27  18  69 W14G22    30.27R WCI  16
6HR MIN TEMP:  24; 6HR MAX TEMP:  27; 6HR PCP: TRACE;

GRAND RAPIDS   LGT SNOW  24  19  81 W18       30.23R WCI  10
6HR MIN TEMP:  23; 6HR MAX TEMP:  25; 6HR PCP: TRACE;

KALAMAZOO      LGT SNOW  23  17  78 W10       30.26S WCI  12
6HR MIN TEMP:  23; 6HR MAX TEMP:  24;

STURGIS*       FLURRIES  21  18  86 W10       30.27S WCI  10
THREE RIVERS*  FLURRIES  22  17  78 W7        30.28S WCI  14
6HR MIN TEMP:  22; 6HR MAX TEMP:  24;


$$
OHZ001>008-015>018-024>025-020700-
NORTHWEST OHIO

CITY           SKY/WX    TMP DP  RH WIND       PRES   REMARKS
DEFIANCE       CLOUDY    23  16  74 W10G16    30.30S WCI  12
6HR MIN TEMP:  17; 6HR MAX TEMP:  24;

FINDLAY        CLOUDY    22  18  85 W14       30.27F WCI   9
6HR MIN TEMP:  18; 6HR MAX TEMP:  24;

TOLEDO EXPRESS CLOUDY    22  17  81 W12       30.26F WCI  10
6HR MIN TEMP:  10; 6HR MAX TEMP:  22;

TOLEDO METCALF CLOUDY    23  16  74 W12       30.28S WCI  12
6HR MIN TEMP:  14; 6HR MAX TEMP:  23;

LIMA           CLOUDY    23  18  81 W17       30.29S WCI   9
6HR MIN TEMP:  20; 6HR MAX TEMP:  26;


$$
AND FOR LAKE MICHIGAN COASTAL AND OPEN LAKE BUOY OBSERVATIONS

STATION/POSITION TEMP    WIND        PRES    VSBY  WAVE
                 AIR SEA DIR/SP/G                  HT/PER
                 (F)     (DEG/KT/KT) (MB)    (MI)  (FT/S)
CALUMET HARBOR    20     280/  7/ 11 1027.0R
MICHIGAN CITY     22     240/ 17/ 20   N/A
SAINT JOSEPH      24     240/ 13/ 17 1026.8F

$$
&&



USA.gov is the U.S. government's official web portal to all federal, state and local government web resources and services.